Home   Weather   Corner Brook   Past weeks

Flag for Canada Past Weather in Corner Brook, Newfoundland and Labrador, Canada — Yesterday and Last 2 Weeks

Now
41 °F

Rain. Fog.


Feels Like: 41 °F
Forecast: 34 / 44 °F
Wind: 2 mph from North

Location: Deer Lake

Current Time: Apr 27, 2017 at 1:03:33 am

Latest Report: Apr 27, 2017 at 12:36 am


Visibility: 3 mi

Pressure: 30.14 "Hg

Humidity: 93%

Dew Point: 39 °F

Location of Corner BrookLocation

Past Weather in Corner Brook — Graph

°F

Corner Brook Temperature Yesterday

Maximum temperature yesterday: 50 °F (at 2:30 pm)
Minimum temperature yesterday: 25 °F (at 6:30 am)
Average temperature yesterday: 37 °F

High & Low Weather Summary for the Past Weeks

 TemperatureHumidityPressure
High50 °F (Apr 26, 2:30 pm)100% (Apr 13, 7:30 am)30.71 "Hg (Apr 13, 7:30 am)
Low-2 °F (Apr 19, 5:30 am)26% (Apr 20, 6:30 pm)29.77 "Hg (Apr 16, 7:30 pm)
Average31 °F72%30.17 "Hg
* Reported Apr 11 10:30 pm — Apr 26 10:30 pm, Corner Brook, Weather by CustomWeather, © 2017

Note: Actual official high and low records may vary slightly from our data, if they occured in-between our weather recording intervals... More about our weather records

Advertising

Corner Brook Weather History for the Previous 24 Hours

Scroll right to see more
 ConditionsComfort  
Time TempWeatherWind HumidityBarometerVisibility
10:30 pm
Wed, Apr 26
43 °FLight rain. Overcast.3 mph81%30.19 "Hg8 mi
9:30 pm43 °FLight rain. Mostly cloudy.2 mph71%30.22 "Hg12 mi
8:30 pm45 °FMostly cloudy.6 mph61%30.22 "Hg15 mi
7:30 pm48 °FMore clouds than sun.9 mph34%30.23 "Hg15 mi
6:30 pm48 °FOvercast.9 mph29%30.25 "Hg15 mi
5:30 pm50 °FOvercast.12 mph32%30.27 "Hg15 mi
4:30 pm50 °FOvercast.20 mph35%30.28 "Hg15 mi
3:30 pm50 °FOvercast.17 mph37%30.29 "Hg15 mi
2:30 pm50 °FMostly cloudy.6 mph30%30.33 "Hg15 mi
1:30 pm45 °FOvercast.7 mph29%30.37 "Hg15 mi
12:30 pm43 °FOvercast.3 mph31%30.38 "Hg15 mi
11:30 am39 °FMostly cloudy.3 mph36%30.40 "Hg15 mi
10:30 am36 °FMore clouds than sun.6 mph41%30.42 "Hg15 mi
9:30 am32 °FOvercast.5 mph60%30.45 "Hg15 mi
8:30 am28 °FOvercast.5 mph74%30.45 "Hg15 mi
7:30 am27 °FMostly cloudy.3 mph80%30.45 "Hg15 mi
6:30 am25 °FPartly sunny.3 mph86%30.47 "Hg15 mi
5:30 am27 °FPassing clouds.8 mph74%30.47 "Hg15 mi
4:30 am27 °FClear.9 mph80%30.47 "Hg15 mi
3:30 am27 °FClear.6 mph80%30.48 "Hg15 mi
2:30 am27 °FClear.5 mph80%30.50 "Hg15 mi
1:30 am27 °FClear.6 mph74%30.49 "Hg15 mi
Weather by CustomWeather, © 2017

See weather overviewHow to use our weather pages